Location: Los Gatos B&B
(42.6926°N, 77.0646°W)
Time: 15:14:10
(UTC-04:00)

Amateur Radio Satellites - All Passes

Search period start: 27 July 2016 14:44
Search period end: 28 July 2016 14:44
Location: Los Gatos B&B, 42.6926°N, 77.0646°W

Satellite Date Start Highest point End Downlink Frequencies (MHz)
Time Altitude Azimuth
UKube-1 27 Jul 14:45:15 14:47:53 16° 297° (WNW) 14:50:31 .
Oscar 19 27 Jul 14:47:25 14:51:33 25° 266° (W) 14:55:43 437.125/150
GONETS M04 27 Jul 14:48:47 14:56:00 31° 83° (E) 15:03:15
BEESAT 27 Jul 15:03:11 15:07:32 34° 97° (E) 15:11:50 436.000
CUSAT 1 27 Jul 15:08:26 15:11:25 80° 82° (E) 15:15:06 437.405
Cosmos 2499 27 Jul 15:18:13 15:25:57 36° 85° (E) 15:33:32 435.465 / 435.565
AO-85 27 Jul 15:24:39 15:29:36 37° 311° (NW) 15:34:20 145.980
ITUPSAT 1 27 Jul 15:26:14 15:30:57 57° 101° (E) 15:35:37 437.325
DANDE 27 Jul 15:34:09 15:36:37 35° 78° (ENE) 15:39:16 436.750
MOZHAYETS 4 27 Jul 15:43:54 15:45:21 11° 88° (E) 15:46:47
AO-7 27 Jul 15:52:30 16:00:54 89° 249° (WSW) 16:09:20 29.400- 29.500
SWISSCUBE 27 Jul 16:19:32 16:23:55 38° 291° (WNW) 16:28:18 437.505
ITAMSAT 1 27 Jul 16:22:32 16:26:31 22° 267° (W) 16:30:33 435.822/435.867
RS-15 27 Jul 16:33:25 16:45:49 85° 240° (WSW) 16:58:03 29.354- 29.394
SO-50 27 Jul 16:40:32 16:44:56 39° 49° (NE) 16:49:12 436.795
BEESAT 27 Jul 16:41:12 16:45:11 27° 294° (WNW) 16:49:08 436.000
KKS-1 27 Jul 16:41:46 16:46:03 42° 99° (E) 16:50:18 437.445
GONETS M04 27 Jul 16:43:43 16:52:15 60° 283° (WNW) 17:00:53
NOAA 15 27 Jul 16:44:58 16:47:09 13° 57° (ENE) 16:49:21 137.62
PHONESAT 2.4 27 Jul 17:00:07 17:02:08 16° 153° (SSE) 17:04:08 2401.200-2431.200
NOAA 18 27 Jul 17:03:35 17:06:48 16° 58° (ENE) 17:10:01 137.9125
HORYU 2 27 Jul 17:04:14 17:08:42 68° 74° (ENE) 17:13:11 437.375
ITUPSAT 1 27 Jul 17:05:15 17:08:20 17° 298° (WNW) 17:11:24 437.325
Cosmos 2499 27 Jul 17:10:05 17:18:44 55° 284° (WNW) 17:27:12 435.465 / 435.565
MOZHAYETS 4 27 Jul 17:18:27 17:23:02 73° 286° (WNW) 17:27:33
STARS 27 Jul 17:19:30 17:23:52 53° 101° (E) 17:28:12 437.465
Cubesat XI-IV 27 Jul 17:39:18 17:43:51 29° 65° (ENE) 17:48:25 437.490
BRITE-PL 27 Jul 17:42:34 17:46:25 37° 71° (ENE) 17:50:17 437.365/2234.400
AO-7 27 Jul 17:49:17 17:54:43 19° 270° (W) 18:00:11 29.400- 29.500
CUTE-I 27 Jul 18:02:10 18:07:16 45° 69° (ENE) 18:12:22 437.470
KKS-1 27 Jul 18:19:02 18:22:20 20° 296° (WNW) 18:25:37 437.445
NOAA 15 27 Jul 18:20:53 18:26:08 87° 75° (ENE) 18:31:25 137.62
SO-50 27 Jul 18:21:25 18:25:12 25° 247° (WSW) 18:28:54 436.795
LilacSat-2 27 Jul 18:31:00 18:34:52 77° 76° (ENE) 18:38:46 437.200
DOVE 4 27 Jul 18:33:45 18:37:26 28° 67° (ENE) 18:41:17 437.250
PHONESAT 2.4 27 Jul 18:35:15 18:38:13 45° 169° (S) 18:41:11 2401.200-2431.200
CUBESAT XI-V 27 Jul 18:38:45 18:43:22 85° 286° (WNW) 18:48:00 437.345
NOAA 18 27 Jul 18:41:12 18:46:44 82° 254° (WSW) 18:52:20 137.9125
GOMX 1 27 Jul 18:42:18 18:46:27 75° 75° (ENE) 18:50:49 467.674
HORYU 2 27 Jul 18:44:02 18:45:42 12° 270° (W) 18:47:23 437.375
CINEMA 3 27 Jul 18:44:35 18:46:23 12° 59° (ENE) 18:48:13 145.822/145.860
RS-15 27 Jul 18:47:52 18:56:29 23° 261° (W) 19:05:04 29.354- 29.394
GONETS M04 27 Jul 18:48:17 18:51:17 12° 307° (NW) 18:54:18
BEESAT 3 27 Jul 18:52:55 18:56:46 60° 121° (ESE) 19:00:40 437.485
HO-68 27 Jul 18:56:08 19:02:02 29° 59° (ENE) 19:07:57 435.675
YUBILEINY 27 Jul 18:56:17 18:57:44 10° 51° (NE) 18:59:11 435.215
STARS 27 Jul 18:57:01 18:59:48 16° 297° (WNW) 19:02:33 437.465
BEESAT 2 27 Jul 19:00:08 19:03:47 37° 117° (ESE) 19:07:29 435.950
SEEDS 27 Jul 19:11:09 19:12:30 11° 62° (ENE) 19:13:51 437.485
Cosmos 2499 27 Jul 19:11:32 19:14:00 11° 306° (NW) 19:16:28 435.465 / 435.565
PCSat 27 Jul 19:11:58 19:16:52 36° 111° (ESE) 19:21:48 145.827
Cubesat XI-IV 27 Jul 19:18:43 19:23:45 40° 262° (W) 19:28:48 437.490
BRITE-PL 27 Jul 19:22:21 19:25:07 17° 268° (W) 19:27:55 437.365/2234.400
COMPASS 1 27 Jul 19:22:48 19:23:29 10° 61° (ENE) 19:24:10 437.405
CUTE-I 27 Jul 19:43:10 19:47:29 24° 266° (W) 19:51:50 437.470
CUBEBUG 2 27 Jul 19:47:25 19:50:19 17° 63° (ENE) 19:53:16 437.445
AAUSAT CUBESAT 2 27 Jul 19:48:37 19:51:09 16° 65° (ENE) 19:53:41 437.432
CANX-2 27 Jul 19:51:54 19:56:02 48° 73° (ENE) 20:00:09 2200.000
NOAA 15 27 Jul 20:04:51 20:06:34 12° 272° (W) 20:08:19 137.62
CUTE 1.7 + AOD 2 27 Jul 20:05:09 20:09:20 59° 75° (ENE) 20:13:33 437.475
Oscar 11 27 Jul 20:06:31 20:07:41 11° 61° (ENE) 20:08:52 145.826/435.025
DOVE 4 27 Jul 20:11:25 20:15:05 27° 266° (W) 20:18:57 437.250
PHONESAT 2.4 27 Jul 20:11:32 20:14:33 53° 185° (S) 20:17:34 2401.200-2431.200
CINEMA 3 27 Jul 20:18:14 20:22:45 82° 258° (WSW) 20:27:32 145.822/145.860
STRAND 1 27 Jul 20:18:47 20:23:51 60° 101° (ESE) 20:28:52 437.568
Cosmos 2491 27 Jul 20:20:29 20:25:11 16° 75° (ENE) 20:29:52 435.465 / 435.565
Cosmos 2504 27 Jul 20:21:36 20:23:35 11° 52° (NE) 20:25:33 435.465 / 435.565
NOAA 18 27 Jul 20:27:07 20:28:12 11° 273° (W) 20:29:18 137.9125
BEESAT 3 27 Jul 20:32:16 20:34:49 16° 319° (NW) 20:37:24 437.485
O/OREOS (USA 219) 27 Jul 20:33:16 20:37:19 35° 106° (ESE) 20:41:23 437.305
BEESAT 2 27 Jul 20:38:32 20:41:43 23° 315° (NW) 20:44:57 435.950
ISS 27 Jul 20:38:55 20:40:42 14° 132° (SE) 20:42:31 145.825
HO-68 27 Jul 20:42:10 20:49:16 62° 258° (WSW) 20:56:25 435.675
SEEDS 27 Jul 20:43:24 20:47:37 72° 259° (W) 20:51:51 437.485
YUBILEINY 27 Jul 20:48:24 20:57:02 53° 75° (ENE) 21:05:34 435.215
COMPASS 1 27 Jul 20:54:14 20:58:25 78° 259° (W) 21:02:36 437.405
PCSat 27 Jul 20:55:17 21:00:15 36° 310° (NW) 21:05:15 145.827
FUNcube-1 27 Jul 20:57:17 21:01:23 34° 69° (ENE) 21:05:32 145.935
ZACube-1 27 Jul 20:58:25 21:02:36 37° 70° (ENE) 21:06:50 437.345
UWE-3 27 Jul 20:58:40 21:03:09 57° 73° (ENE) 21:07:44 435.000/436.395/437.385
AIST 2 27 Jul 21:04:51 21:08:38 38° 117° (ESE) 21:12:29 435.215
M-CUBED/EXP-1 PRIME 27 Jul 21:12:14 21:15:26 25° 61° (ENE) 21:18:50 437.505
PRISM 27 Jul 21:20:20 21:24:02 32° 98° (E) 21:27:44 437.425
CUBEBUG 2 27 Jul 21:21:55 21:26:25 58° 260° (W) 21:31:06 437.445
AAUSAT CUBESAT 2 27 Jul 21:22:15 21:26:16 47° 261° (W) 21:30:17 437.432
CANX-2 27 Jul 21:29:38 21:32:09 15° 269° (W) 21:34:40 2200.000
AUBIESAT-1 27 Jul 21:37:21 21:40:57 38° 65° (ENE) 21:44:50 437.475
Oscar 11 27 Jul 21:38:49 21:43:10 80° 256° (WSW) 21:47:33 145.826/435.025
DELFI C3 27 Jul 21:40:25 21:44:12 44° 73° (ENE) 21:47:59 145.870
CUTE 1.7 + AOD 2 27 Jul 21:43:43 21:45:33 12° 270° (W) 21:47:22 437.475
PHONESAT 2.4 27 Jul 21:48:12 21:50:45 23° 202° (SSW) 21:53:17 2401.200-2431.200
STRAND 1 27 Jul 21:59:05 22:02:33 19° 299° (WNW) 22:06:00 437.568
HUMSAT D 27 Jul 22:08:04 22:12:10 45° 72° (ENE) 22:16:17 437.325/437.525
Cosmos 2504 27 Jul 22:11:07 22:19:12 58° 77° (ENE) 22:26:39 435.465 / 435.565
Cosmos 2491 27 Jul 22:11:50 22:20:32 82° 95° (E) 22:29:17 435.465 / 435.565
O/OREOS (USA 219) 27 Jul 22:13:07 22:16:47 24° 303° (WNW) 22:20:28 437.305
ISS 27 Jul 22:13:31 22:16:46 72° 329° (NNW) 22:20:01 145.825
AO-85 27 Jul 22:15:40 22:19:45 33° 47° (NE) 22:23:30 145.980
TIGRISAT 27 Jul 22:21:40 22:24:05 14° 90° (E) 22:26:26 435.000
FUNcube-1 27 Jul 22:33:57 22:37:39 24° 266° (W) 22:41:24 145.935
ZACube-1 27 Jul 22:35:25 22:38:58 22° 267° (W) 22:42:35 437.345
UNISAT 6 27 Jul 22:37:18 22:40:53 22° 93° (E) 22:44:23 437.425
UWE-3 27 Jul 22:37:19 22:39:58 15° 270° (W) 22:42:41 435.000/436.395/437.385
AIST 2 27 Jul 22:43:52 22:47:15 24° 315° (NW) 22:50:39 435.215
YUBILEINY 27 Jul 22:45:45 22:53:27 35° 276° (W) 23:01:08 435.215
M-CUBED/EXP-1 PRIME 27 Jul 22:46:38 22:49:52 27° 260° (W) 22:53:21 437.505
ESTCUBE 1 27 Jul 22:54:53 22:58:40 27° 67° (ENE) 23:02:27 437.505/2401.250
50 SAT 27 Jul 22:55:05 22:56:52 13° 65° (ENE) 22:58:40 437.505
PRISM 27 Jul 22:56:01 22:59:09 21° 294° (WNW) 23:02:17 437.425
CUBEBUG 1 27 Jul 23:08:42 23:12:12 25° 67° (ENE) 23:15:43 437.445
VELOX 1 27 Jul 23:09:16 23:12:41 23° 66° (ENE) 23:16:07 145.980
AUBIESAT-1 27 Jul 23:13:01 23:15:38 17° 264° (W) 23:18:23 437.475
ANTELSAT 27 Jul 23:15:05 23:19:38 53° 100° (E) 23:24:03 437.575/2403.000
DELFI C3 27 Jul 23:17:04 23:19:16 14° 269° (W) 23:21:28 145.870
NANOSAT C BR1 27 Jul 23:40:24 23:42:43 14° 91° (E) 23:45:01 145.865
DUCHIFAT 1 27 Jul 23:44:16 23:46:41 15° 91° (E) 23:49:05 145.980
HUMSAT D 27 Jul 23:45:15 23:48:01 17° 268° (W) 23:50:48 437.325/437.525
DX 1 27 Jul 23:50:40 23:54:47 44° 71° (ENE) 23:58:56 434.975-435.025
ISS 27 Jul 23:51:04 23:53:37 20° 347° (NNW) 23:56:10 145.825
AISAT 27 Jul 23:53:03 23:57:24 68° 74° (ENE) 00:01:47 437.250
AO-85 27 Jul 23:56:25 00:00:03 26° 247° (WSW) 00:03:25 145.980
TIGRISAT 27 Jul 23:56:35 00:01:11 61° 287° (WNW) 00:05:39 435.000
QB50P1 28 Jul 00:02:10 00:05:47 26° 95° (E) 00:09:22 145.935-145.965
UKube-1 28 Jul 00:03:02 00:07:10 48° 72° (ENE) 00:11:20 .
Cosmos 2504 28 Jul 00:05:22 00:11:57 29° 278° (W) 00:18:11 435.465 / 435.565
POPSAT HIP 1 28 Jul 00:08:33 00:12:22 30° 96° (E) 00:16:07 437.405
Cosmos 2491 28 Jul 00:11:58 00:18:27 23° 297° (WNW) 00:24:59 435.465 / 435.565
UNISAT 6 28 Jul 00:13:25 00:17:44 39° 290° (WNW) 00:21:56 437.425
AIST 1 28 Jul 00:21:02 00:25:01 34° 76° (ENE) 00:29:01
50 SAT 28 Jul 00:26:37 00:30:08 43° 261° (W) 00:33:39 437.505
QB50P2 28 Jul 00:29:22 00:33:36 55° 100° (E) 00:37:48 145.880/145.840
ESTCUBE 1 28 Jul 00:31:26 00:35:23 30° 264° (W) 00:39:20 437.505/2401.250
POLYITAN 1 28 Jul 00:32:00 00:36:16 56° 100° (E) 00:40:28 437.675
SPROUT 28 Jul 00:34:52 00:39:08 85° 73° (ENE) 00:43:27 437.525
CUBEBUG 1 28 Jul 00:44:32 00:48:22 31° 264° (W) 00:52:13 437.445
VELOX 1 28 Jul 00:44:57 00:48:57 35° 262° (W) 00:53:00 145.980
ANTELSAT 28 Jul 00:52:52 00:55:53 17° 297° (WNW) 00:58:53 437.575/2403.000
GONETS M04 28 Jul 00:57:59 01:02:57 16° 57° (ENE) 01:07:55
Cosmos 2499 28 Jul 01:11:56 01:13:41 11° 53° (NE) 01:15:24 435.465 / 435.565
NANOSAT C BR1 28 Jul 01:14:35 01:18:45 52° 287° (WNW) 01:22:53 145.865
DUCHIFAT 1 28 Jul 01:18:32 01:22:40 50° 287° (WNW) 01:26:46 145.980
Oscar 19 28 Jul 01:19:37 01:22:06 13° 89° (E) 01:24:35 437.125/150
TISAT 1 28 Jul 01:27:41 01:31:52 78° 75° (ENE) 01:36:07 437.305
DX 1 28 Jul 01:28:22 01:31:12 17° 267° (W) 01:34:03 434.975-435.025
ISS 28 Jul 01:28:35 01:30:54 18° 7° (N) 01:33:13 145.825
BUGSAT 1 28 Jul 01:29:53 01:34:10 85° 282° (WNW) 01:38:25 437.445
AISAT 28 Jul 01:32:56 01:34:21 11° 271° (W) 01:35:45 437.250
JAS-2 28 Jul 01:37:35 01:42:53 72° 103° (ESE) 01:48:38 435.910
QB50P1 28 Jul 01:37:50 01:41:31 28° 292° (WNW) 01:45:12 145.935-145.965
UKube-1 28 Jul 01:40:53 01:43:28 16° 268° (W) 01:46:05 .
POPSAT HIP 1 28 Jul 01:44:30 01:48:01 25° 293° (WNW) 01:51:31 437.405
SWISSCUBE 28 Jul 01:49:14 01:53:24 30° 67° (ENE) 01:57:34 437.505
AIST 1 28 Jul 01:59:11 02:02:22 20° 273° (W) 02:05:34
QB50P2 28 Jul 02:06:32 02:08:58 15° 297° (WNW) 02:11:22 145.880/145.840
POLYITAN 1 28 Jul 02:09:13 02:11:36 15° 297° (WNW) 02:13:58 437.675
BEESAT 28 Jul 02:10:06 02:14:36 43° 70° (ENE) 02:19:09 436.000
ITUPSAT 1 28 Jul 02:33:26 02:38:12 73° 75° (ENE) 02:43:01 437.325
Gurwin Techsat 1B 28 Jul 02:44:07 02:49:04 38° 97° (E) 02:53:59 435.225
MOZHAYETS 4 28 Jul 02:46:26 02:48:40 14° 61° (ENE) 02:50:56
GONETS M04 28 Jul 02:52:41 03:01:31 74° 80° (E) 03:10:21
ITAMSAT 1 28 Jul 02:55:14 02:58:15 16° 90° (E) 03:01:17 435.822/435.867
Oscar 19 28 Jul 02:56:47 03:01:58 76° 286° (WNW) 03:07:08 437.125/150
Cosmos 2499 28 Jul 03:01:07 03:08:54 60° 77° (ENE) 03:16:05 435.465 / 435.565
ISS 28 Jul 03:04:48 03:07:56 43° 27° (NNE) 03:11:04 145.825
BEESAT 3 28 Jul 03:09:26 03:13:16 44° 52° (NE) 03:17:03 437.485
BEESAT 2 28 Jul 03:17:18 03:20:54 31° 48° (NE) 03:24:28 435.950
JAS-2 28 Jul 03:24:21 03:27:30 16° 299° (WNW) 03:30:45 435.910
SWISSCUBE 28 Jul 03:26:56 03:31:08 30° 264° (W) 03:35:22 437.505
KKS-1 28 Jul 03:40:23 03:44:33 42° 70° (ENE) 03:48:46 437.445
BEESAT 28 Jul 03:48:58 03:52:33 21° 266° (W) 03:56:11 436.000
AO-7 28 Jul 03:54:01 04:01:03 29° 95° (E) 04:08:01 29.400- 29.500
PCSat 28 Jul 03:58:41 04:03:42 36° 51° (NE) 04:08:40 145.827
CUBESAT XI-V 28 Jul 04:08:42 04:10:22 12° 60° (ENE) 04:12:02 437.345
CUSAT 1 28 Jul 04:12:46 04:16:51 88° 100° (E) 04:20:04 437.405
ITUPSAT 1 28 Jul 04:14:31 04:16:33 12° 270° (W) 04:18:36 437.325
STARS 28 Jul 04:16:35 04:20:51 51° 72° (ENE) 04:25:08 437.465
MOZHAYETS 4 28 Jul 04:20:37 04:25:15 71° 258° (WSW) 04:29:53
Gurwin Techsat 1B 28 Jul 04:24:20 04:28:51 29° 295° (WNW) 04:33:23 435.225
ITAMSAT 1 28 Jul 04:33:02 04:38:13 66° 287° (WNW) 04:43:19 435.822/435.867
Oscar 19 28 Jul 04:39:13 04:40:24 11° 304° (NW) 04:41:35 437.125/150
ISS 28 Jul 04:41:29 04:44:15 25° 224° (SW) 04:47:00 145.825
DANDE 28 Jul 04:42:14 04:47:46 67° 98° (E) 04:51:52 436.750
BEESAT 3 28 Jul 04:47:59 04:50:36 17° 249° (WSW) 04:53:11 437.485
GONETS M04 28 Jul 04:50:49 04:57:25 25° 280° (W) 05:04:04
RS-15 28 Jul 04:54:44 04:58:14 12° 92° (E) 05:01:46 29.354- 29.394
Cosmos 2499 28 Jul 04:55:13 05:01:20 26° 278° (W) 05:07:08 435.465 / 435.565
BEESAT 2 28 Jul 04:55:17 04:58:38 26° 246° (WSW) 05:01:58 435.950
HORYU 2 28 Jul 04:56:30 04:58:16 12° 90° (E) 05:00:01 437.375
O/OREOS (USA 219) 28 Jul 05:05:24 05:06:18 10° 47° (NE) 05:07:11 437.305
KKS-1 28 Jul 05:18:10 05:21:18 19° 267° (W) 05:24:28 437.445
AIST 2 28 Jul 05:25:17 05:29:06 34° 49° (NE) 05:32:55 435.215
PCSat 28 Jul 05:42:09 05:47:04 36° 249° (WSW) 05:51:56 145.827
CUBESAT XI-V 28 Jul 05:42:28 05:47:05 81° 257° (WSW) 05:51:43 437.345
AO-7 28 Jul 05:46:05 05:54:20 65° 294° (WNW) 06:02:30 29.400- 29.500
BRITE-PL 28 Jul 05:46:34 05:49:04 14° 91° (E) 05:51:38 437.365/2234.400
STARS 28 Jul 05:54:54 05:57:30 15° 268° (W) 06:00:06 437.465
STRAND 1 28 Jul 05:59:43 06:01:59 13° 58° (ENE) 06:04:16 437.568
CUTE-I 28 Jul 06:19:36 06:22:54 16° 90° (E) 06:26:11 437.470
DANDE 28 Jul 06:28:44 06:30:31 12° 288° (WNW) 06:32:10 436.750
HORYU 2 28 Jul 06:30:48 06:35:16 66° 287° (WNW) 06:39:40 437.375
NOAA 15 28 Jul 06:35:36 06:40:12 30° 96° (E) 06:44:49 137.62
O/OREOS (USA 219) 28 Jul 06:41:56 06:46:29 79° 66° (ENE) 06:51:03 437.305
GOMX 1 28 Jul 06:42:43 06:46:51 24° 94° (E) 06:51:07 467.674
RS-15 28 Jul 06:56:41 07:07:48 61° 114° (ESE) 07:19:31 29.354- 29.394
SO-50 28 Jul 06:59:09 06:59:59 10° 106° (ESE) 07:00:49 436.795
NOAA 18 28 Jul 07:02:43 07:07:55 40° 98° (E) 07:13:03 137.9125
AIST 2 28 Jul 07:04:00 07:07:28 25° 246° (WSW) 07:10:54 435.215
BRITE-PL 28 Jul 07:23:05 07:27:54 72° 285° (WNW) 07:33:07 437.365/2234.400
Cubesat XI-IV 28 Jul 07:34:42 07:40:05 79° 103° (ESE) 07:45:25 437.490
STRAND 1 28 Jul 07:35:15 07:40:25 89° 263° (W) 07:45:36 437.568
LilacSat-2 28 Jul 07:37:50 07:41:43 76° 284° (WNW) 07:45:33 437.200
AO-7 28 Jul 07:40:54 07:45:31 16° 315° (NW) 07:50:09 29.400- 29.500
CUTE-I 28 Jul 07:58:07 08:03:25 65° 288° (WNW) 08:08:41 437.470
DOVE 4 28 Jul 08:07:45 08:12:56 73° 102° (ESE) 08:18:13 437.250
HO-68 28 Jul 08:09:41 08:15:29 25° 93° (E) 08:21:12 435.675
PRISM 28 Jul 08:10:38 08:14:02 26° 68° (ENE) 08:17:27 437.425
CINEMA 3 28 Jul 08:12:31 08:16:40 26° 93° (E) 08:20:47 145.822/145.860
NOAA 15 28 Jul 08:15:14 08:19:59 36° 293° (WNW) 08:24:45 137.62
GOMX 1 28 Jul 08:20:14 08:25:02 44° 289° (WNW) 08:30:05 467.674
Cosmos 2491 28 Jul 08:21:25 08:29:38 42° 72° (ENE) 08:37:50 435.465 / 435.565
O/OREOS (USA 219) 28 Jul 08:24:37 08:25:11 10° 263° (W) 08:25:46 437.305
SEEDS 28 Jul 08:27:31 08:30:19 17° 92° (E) 08:33:05 437.485
SO-50 28 Jul 08:34:49 08:39:41 84° 128° (SE) 08:44:35 436.795
COMPASS 1 28 Jul 08:37:32 08:40:01 15° 91° (E) 08:42:28 437.405
NOAA 18 28 Jul 08:43:38 08:48:25 30° 296° (WNW) 08:53:08 137.9125
UWE-3 28 Jul 08:50:09 08:51:34 11° 88° (E) 08:52:58 435.000/436.395/437.385
AAUSAT CUBESAT 2 28 Jul 09:04:04 09:07:25 24° 95° (E) 09:10:45 437.432
RS-15 28 Jul 09:09:35 09:20:43 48° 319° (NW) 09:32:28 29.354- 29.394
CANX-2 28 Jul 09:11:42 09:15:57 89° 116° (ESE) 09:20:09 2200.000
CUBEBUG 2 28 Jul 09:12:23 09:16:31 30° 95° (E) 09:20:33 437.445
Cubesat XI-IV 28 Jul 09:16:25 09:19:28 16° 301° (WNW) 09:22:31 437.490
STRAND 1 28 Jul 09:19:15 09:20:17 11° 272° (W) 09:21:18 437.568
TIGRISAT 28 Jul 09:21:08 09:23:46 15° 62° (ENE) 09:26:26 435.000
CUTE 1.7 + AOD 2 28 Jul 09:24:56 09:29:10 75° 283° (WNW) 09:33:20 437.475
Oscar 11 28 Jul 09:26:18 09:29:13 18° 92° (E) 09:32:07 145.826/435.025
UNISAT 6 28 Jul 09:36:46 09:40:21 22° 65° (ENE) 09:43:58 437.425
PRISM 28 Jul 09:45:54 09:49:17 25° 264° (W) 09:52:42 437.425
DOVE 4 28 Jul 09:46:57 09:50:02 16° 298° (WNW) 09:53:12 437.250
CINEMA 3 28 Jul 09:49:13 09:53:53 39° 290° (WNW) 09:58:29 145.822/145.860
YUBILEINY 28 Jul 09:49:50 09:58:22 59° 91° (E) 10:06:59 435.215
HO-68 28 Jul 09:56:33 10:03:39 64° 291° (WNW) 10:10:42 435.675
SEEDS 28 Jul 10:02:17 10:06:11 40° 288° (WNW) 10:10:04 437.485
COMPASS 1 28 Jul 10:11:52 10:15:49 44° 287° (WNW) 10:19:43 437.405
ANTELSAT 28 Jul 10:14:05 10:18:34 51° 72° (ENE) 10:23:08 437.575/2403.000
SO-50 28 Jul 10:17:28 10:20:48 18° 322° (NW) 10:24:07 436.795
Cosmos 2491 28 Jul 10:18:22 10:26:29 44° 273° (W) 10:34:36 435.465 / 435.565
FUNcube-1 28 Jul 10:20:19 10:24:48 63° 101° (E) 10:29:07 145.935
ZACube-1 28 Jul 10:21:54 10:26:24 70° 101° (E) 10:30:47 437.345
UWE-3 28 Jul 10:23:57 10:28:34 73° 285° (WNW) 10:33:03 435.000/436.395/437.385
M-CUBED/EXP-1 PRIME 28 Jul 10:24:38 10:28:09 20° 98° (E) 10:31:38 437.505
NANOSAT C BR1 28 Jul 10:34:04 10:35:57 13° 62° (ENE) 10:37:49 145.865
DUCHIFAT 1 28 Jul 10:37:41 10:39:37 13° 62° (ENE) 10:41:35 145.980
AAUSAT CUBESAT 2 28 Jul 10:39:21 10:42:53 28° 291° (WNW) 10:46:24 437.432
Cosmos 2504 28 Jul 10:48:36 10:57:01 50° 89° (E) 11:05:22 435.465 / 435.565
CUBEBUG 2 28 Jul 10:48:59 10:53:05 30° 292° (WNW) 10:57:04 437.445
AUBIESAT-1 28 Jul 10:49:18 10:53:23 29° 101° (E) 10:57:24 437.475
DELFI C3 28 Jul 10:51:42 10:55:38 67° 102° (ESE) 10:59:33 145.870
TIGRISAT 28 Jul 10:55:18 10:59:54 65° 259° (W) 11:04:36 435.000
QB50P1 28 Jul 10:55:33 10:58:51 22° 66° (ENE) 11:02:10 145.935-145.965
Oscar 11 28 Jul 11:01:27 11:05:32 42° 289° (WNW) 11:09:35 145.826/435.025
POPSAT HIP 1 28 Jul 11:01:53 11:05:22 25° 67° (ENE) 11:08:53 437.405
UNISAT 6 28 Jul 11:12:24 11:16:47 41° 262° (W) 11:21:14 437.425
QB50P2 28 Jul 11:22:28 11:26:31 44° 72° (ENE) 11:30:36 145.880/145.840
POLYITAN 1 28 Jul 11:25:05 11:29:09 45° 72° (ENE) 11:33:16 437.675
HUMSAT D 28 Jul 11:26:05 11:30:18 77° 102° (ESE) 11:34:26 437.325/437.525
RS-15 28 Jul 11:27:44 11:37:17 26° 352° (N) 11:47:04 29.354- 29.394
AISAT 28 Jul 11:44:23 11:46:12 12° 90° (E) 11:48:01 437.250
HO-68 28 Jul 11:46:47 11:49:59 14° 311° (NW) 11:53:11 435.675
YUBILEINY 28 Jul 11:48:00 11:55:39 32° 292° (WNW) 12:03:23 435.215
JAS-2 28 Jul 11:51:18 11:56:28 33° 67° (ENE) 12:01:15 435.910
ANTELSAT 28 Jul 11:52:28 11:55:33 17° 269° (W) 11:58:40 437.575/2403.000
50 SAT 28 Jul 11:55:47 11:57:33 13° 92° (E) 11:59:19 437.505
FUNcube-1 28 Jul 11:58:09 12:00:28 14° 298° (WNW) 12:02:46 145.935
M-CUBED/EXP-1 PRIME 28 Jul 11:58:18 12:02:49 47° 294° (WNW) 12:07:19 437.505
ZACube-1 28 Jul 12:00:03 12:02:04 13° 299° (WNW) 12:04:04 437.345
NANOSAT C BR1 28 Jul 12:06:56 12:11:08 65° 259° (W) 12:15:23 145.865
DUCHIFAT 1 28 Jul 12:10:36 12:14:48 63° 259° (W) 12:19:02 145.980
BUGSAT 1 28 Jul 12:19:59 12:24:02 72° 76° (ENE) 12:28:12 437.445
SPROUT 28 Jul 12:21:35 12:23:51 14° 91° (E) 12:26:04 437.525
ESTCUBE 1 28 Jul 12:22:23 12:26:47 52° 100° (E) 12:31:09 437.505/2401.250
AUBIESAT-1 28 Jul 12:23:37 12:27:46 32° 297° (WNW) 12:31:52 437.475
DELFI C3 28 Jul 12:29:05 12:29:56 11° 298° (WNW) 12:30:47 145.870
QB50P1 28 Jul 12:30:34 12:34:25 34° 263° (W) 12:38:20 145.935-145.965
CUBEBUG 1 28 Jul 12:31:39 12:35:52 43° 99° (E) 12:40:05 437.445
AO-85 28 Jul 12:33:21 12:34:49 11° 106° (ESE) 12:36:17 145.980
VELOX 1 28 Jul 12:33:48 12:37:59 39° 98° (E) 12:42:10 145.980
Oscar 19 28 Jul 12:36:40 12:40:34 22° 63° (ENE) 12:44:29 437.125/150
POPSAT HIP 1 28 Jul 12:37:19 12:41:02 29° 264° (W) 12:44:49 437.405
Cosmos 2504 28 Jul 12:42:22 12:50:32 40° 288° (WNW) 12:58:42 435.465 / 435.565
AIST 1 28 Jul 12:51:59 12:55:01 19° 87° (E) 12:58:05
QB50P2 28 Jul 12:59:50 13:02:33 16° 268° (W) 13:05:17 145.880/145.840
POLYITAN 1 28 Jul 13:02:31 13:05:12 16° 268° (W) 13:07:53 437.675
HUMSAT D 28 Jul 13:04:29 13:05:17 10° 299° (WNW) 13:06:04 437.325/437.525
AO-7 28 Jul 13:08:50 13:10:42 11° 39° (NE) 13:12:36 29.400- 29.500
TISAT 1 28 Jul 13:13:05 13:14:28 11° 90° (E) 13:15:52 437.305
DX 1 28 Jul 13:13:46 13:18:10 77° 102° (ESE) 13:22:33 434.975-435.025
AISAT 28 Jul 13:18:39 13:23:06 66° 286° (WNW) 13:27:31 437.250
UKube-1 28 Jul 13:24:59 13:29:21 80° 103° (ESE) 13:33:41 .
50 SAT 28 Jul 13:28:00 13:31:22 38° 288° (WNW) 13:34:43 437.505
JAS-2 28 Jul 13:36:07 13:41:32 35° 262° (W) 13:46:32 435.910
RS-15 28 Jul 13:44:12 13:54:59 33° 27° (NNE) 14:05:46 29.354- 29.394
SPROUT 28 Jul 13:55:53 14:00:07 54° 287° (WNW) 14:04:19 437.525
ESTCUBE 1 28 Jul 14:00:20 14:03:11 17° 297° (WNW) 14:06:03 437.505/2401.250
GONETS M04 28 Jul 14:02:49 14:07:31 16° 75° (ENE) 14:12:12
Gurwin Techsat 1B 28 Jul 14:05:47 14:11:03 65° 72° (ENE) 14:16:19 435.225
CUBEBUG 1 28 Jul 14:08:44 14:11:50 19° 295° (WNW) 14:14:56 437.445
AO-85 28 Jul 14:09:11 14:14:35 79° 121° (ESE) 14:19:44 145.980
VELOX 1 28 Jul 14:10:51 14:14:12 21° 295° (WNW) 14:17:33 145.980
ITAMSAT 1 28 Jul 14:13:23 14:17:43 27° 65° (ENE) 14:22:05 435.822/435.867
Oscar 19 28 Jul 14:14:39 14:19:34 48° 261° (W) 14:24:32 437.125/150
AIST 1 28 Jul 14:28:30 14:32:21 34° 284° (WNW) 14:36:17
ITUPSAT 1 28 Jul 14:34:18 14:37:26 17° 92° (E) 14:40:34 437.325
